This demonstration page uses our WeatherBlox Daily Observations layout. Learn more.

Left ArrowRight Arrow

39.29038, -76.61219

Hourly Observations for November 30, 2016

Temp ( °F °C ) Dew Point ( °F °C ) Humidity (%) Winds ( mph kmh ) Pressure ( in mb ) Visibility ( mi km ) Precip ( " mm )
12:54 am 00:54 undefined 57 13.9 55 12.8 93 93 undefined N/A 29.91 1013 N/A 0.00 0.00
1:54 am 01:54 undefined 57 13.9 56 13.3 96 96 undefined N/A 29.91 1013 N/A 0.00 0.00
2:54 am 02:54 undefined N/A N/A N/A undefined N/A 29.92 1013 N/A 0.00 0.00
3:54 am 03:54 undefined N/A N/A N/A undefined N/A 29.91 1013 N/A 0.00 0.00
4:54 am 04:54 undefined N/A N/A N/A undefined N/A 29.88 1012 N/A 0.00 0.00
5:54 am 05:54 undefined N/A N/A N/A undefined N/A 29.90 1013 N/A 0.00 0.00
6:54 am 06:54 undefined N/A N/A N/A undefined N/A 29.90 1013 N/A 0.00 0.00
7:54 am 07:54 undefined N/A N/A N/A undefined N/A 29.89 1012 N/A 0.00 0.00
8:54 am 08:54 undefined N/A N/A N/A undefined N/A 29.85 1011 N/A 0.05 1.27
9:54 am 09:54 undefined N/A N/A N/A undefined N/A 29.83 1010 N/A 0.18 4.57
10:54 am 10:54 undefined 61 16.1 57 13.9 87 87 undefined N/A 29.78 1009 N/A 0.15 3.81
11:54 am 11:54 undefined 60 15.6 58 14.4 93 93 undefined N/A 29.76 1008 N/A 0.01 0.25
12:54 pm 12:54 undefined 59 15 58 14.4 96 96 undefined N/A 29.78 1008 N/A 0.00 0.00
1:54 pm 13:54 undefined 61 16.1 59 15 93 93 undefined N/A 29.75 1007 N/A 0.01 0.25
2:54 pm 14:54 undefined 62 16.7 60 15.6 93 93 undefined N/A 29.74 1007 N/A 0.00 0.00
3:54 pm 15:54 undefined 62 16.7 60 15.6 93 93 undefined N/A 29.70 1006 N/A 0.00 0.00
4:54 pm 16:54 undefined 61 16.1 59 15 93 93 undefined N/A 29.70 1006 N/A 0.01 0.25
5:54 pm 17:54 undefined 63 17.2 60 15.6 90 90 undefined N/A 29.68 1005 N/A 0.01 0.25
6:54 pm 18:54 undefined 63 17.2 60 15.6 90 90 undefined N/A 29.67 1005 N/A 0.01 0.25
7:54 pm 19:54 undefined 61 16.1 57 13.9 87 87 undefined N/A 29.63 1004 N/A 0.19 4.83
8:54 pm 20:54 undefined 61 16.1 56 13.3 84 84 undefined N/A 29.62 1003 N/A 0.00 0.00
9:54 pm 21:54 undefined 60 15.6 56 13.3 86 86 undefined N/A 29.60 1003 N/A 0.15 3.81
10:54 pm 22:54 undefined 59 15 56 13.3 90 90 undefined N/A 29.53 1000 N/A 0.13 3.30
11:54 pm 23:54 undefined 59 15 56 13.3 90 90 undefined N/A 29.54 1001 N/A 0.00 0.00

Powered by AerisWeather